This demonstration page uses our WeatherBlox Daily Observations layout. Learn more.

Left ArrowRight Arrow

38.80484, -77.04692

Hourly Observations for May 7, 2015

Temp ( °F °C ) Dew Point ( °F °C ) Humidity (%) Winds ( mph kmh ) Pressure ( in mb ) Visibility ( mi km ) Precip ( " mm )
12:52 am 00:52 Mostly Cloudy 67 19.4 54 12.2 63 63 E 3 6 30.19 1023 10 16 N/A
1:52 am 01:52 Partly Cloudy 66 18.9 55 12.8 68 68 ENE 6 9 30.19 1022 10 16 N/A
2:52 am 02:52 Mostly Cloudy 65 18.3 54 12.2 68 68 ENE 5 7 30.18 1022 10 16 N/A
3:52 am 03:52 Partly Cloudy 64 17.8 54 12.2 70 70 NE 7 11 30.18 1022 10 16 N/A
4:52 am 04:52 Mostly Clear 63 17.2 53 11.7 70 70 ENE 5 7 30.18 1022 10 16 N/A
5:52 am 05:52 Mostly Clear 63 17.2 53 11.7 70 70 ENE 8 13 30.18 1022 10 16 N/A
6:52 am 06:52 Partly Cloudy 62 16.7 53 11.7 73 73 ENE 7 11 30.19 1023 10 16 N/A
7:52 am 07:52 Partly Cloudy 64 17.8 54 12.2 70 70 ENE 3 6 30.21 1023 9 14 N/A
8:52 am 08:52 Partly Cloudy 66 18.9 55 12.8 68 68 VRB 3 6 30.22 1023 9 14 N/A
9:52 am 09:52 Partly Cloudy 70 21.1 56 13.3 61 61 N N/A 30.22 1023 10 16 N/A
10:52 am 10:52 Partly Cloudy 73 22.8 57 13.9 57 57 N N/A 30.22 1023 10 16 N/A
11:52 am 11:52 Partly Cloudy 75 23.9 58 14.4 55 55 N N/A 30.22 1023 10 16 N/A
12:52 pm 12:52 Partly Cloudy 77 25 60 15.6 56 56 SSE 5 7 30.20 1023 10 16 N/A
1:52 pm 13:52 Partly Cloudy 79 26.1 62 16.7 56 56 S 7 11 30.18 1022 10 16 N/A
2:52 pm 14:52 Mostly Cloudy 80 26.7 62 16.7 54 54 S 7 11 30.16 1021 10 16 N/A
3:52 pm 15:52 Mostly Cloudy 80 26.7 63 17.2 56 56 SSE 8 13 30.13 1020 10 16 N/A
4:52 pm 16:52 Mostly Cloudy 80 26.7 62 16.7 54 54 S 6 9 30.11 1020 10 16 N/A
5:52 pm 17:52 Mostly Cloudy 79 26.1 63 17.2 58 58 S 9 15 30.11 1020 10 16 N/A
6:52 pm 18:52 Mostly Cloudy 78 25.6 60 15.6 54 54 S 8 13 30.11 1020 10 16 N/A
7:52 pm 19:52 Mostly Cloudy 76 24.4 61 16.1 60 60 S 6 9 30.11 1020 10 16 N/A
8:52 pm 20:52 Mostly Cloudy 74 23.3 60 15.6 62 62 SSE 7 11 30.11 1020 10 16 N/A
9:52 pm 21:52 Mostly Cloudy 73 22.8 59 15 62 62 S 8 13 30.13 1020 10 16 N/A
10:52 pm 22:52 Mostly Clear 70 21.1 58 14.4 66 66 S 7 11 30.13 1020 10 16 N/A
11:52 pm 23:52 Mostly Clear 69 20.6 59 15 70 70 S 7 11 30.13 1020 10 16 N/A

Powered by AerisWeather